Station TPLM2 - Thomas Point, MD Image indicating link to RSS feed of recent meteorological observations for station TPLM2


Conditions at TPLM2 as of
(4:00 am EDT)
0800 GMT on 05/29/2024:
     

Click on the graph icon in the table below to see a time series plot of the last five days of that observation.

5-day plot - Wind Direction Wind Direction (WDIR): W ( 280 deg true )
5-day plot - Wind Speed Wind Speed (WSPD): 9 kts
5-day plot - Wind Gust Wind Gust (GST): 10 kts
5-day plot - Atmospheric Pressure Atmospheric Pressure (PRES):29.93 in
5-day plot - Pressure Tendency Pressure Tendency (PTDY):+0.00 in ( Steady )
5-day plot - Air Temperature Air Temperature (ATMP): 65.7 °F
5-day plot - Wind Speed at 10 Meters Wind Speed at 10 meters (WSPD10M): 8 kts
5-day plot - Wind Speed at 20 Meters Wind Speed at 20 meters (WSPD20M): 10 kts
5-day plot -  Wind Speed, Wind Gust and Atmospheric Pressure Combined plot of Wind Speed, Gust, and Air Pressure
Continuous Winds
TIME
(EDT)
5-day plot - Wind Direction WDIR 5-day plot - Wind Speed WSPD
4:00 amWNW ( 282 deg ) 10 kts
3:50 amWNW ( 283 deg ) 11 kts
3:40 amW ( 280 deg ) 13 kts
3:30 amW ( 281 deg ) 13 kts
3:20 amWNW ( 282 deg ) 12 kts
3:10 amWNW ( 285 deg ) 11 kts
 
Peak gust during the measurement hour
TIME
(EDT)
5-day plot - Gust Direction GDR 5-day plot - Gust Speed GST
3:31 amW ( 280 deg ) 15 kts
Previous observations
TIME
(EDT)
5-day plot - Wind Direction
WDIR
 
5-day plot - Wind Speed
WSPD
kts
5-day plot - Wind Gust
GST
kts
5-day plot - Wave Height
WVHT
ft
5-day plot - Dominant Wave Period
DPD
sec
5-day plot - Average Wave Period
APD
sec
5-day plot - Mean Wave Direction
MWD
 
5-day plot - Atmospheric Pressure
PRES
in
5-day plot - Pressure Tendency
PTDY
in
5-day plot - Air Temperature
ATMP
°F
5-day plot - Water Temperature
WTMP
°F
5-day plot - Dew Point
DEWP
°F
5-day plot - Salinity
SAL
psu
5-day plot - Visibility
VIS
nmi
5-day plot - Tide (above MLLW)
TIDE
ft
2024-05-29 03:00 amWNW 11 12----29.93+0.00 66.2-----
2024-05-29 02:00 am W 11 13----29.93+0.01 66.7-----
2024-05-29 01:00 am W 15 17----29.93+0.01 67.6-----
2024-05-29 12:00 am W 11 12----29.93+0.04 67.5-----
2024-05-28 11:00 pmWSW 11 12----29.93+0.05 68.9-----
2024-05-28 10:00 pm SW 16 17----29.91+0.05 69.8-----
2024-05-28 09:00 pm SW 9 10----29.89+0.04 71.8-----
2024-05-28 08:00 pmSSW 13 14----29.88+0.03 71.4-----
2024-05-28 07:00 pm SW 10 10----29.86+0.00 73.4-----
2024-05-28 06:00 pmWSW 15 16----29.85+0.00 78.6-----
2024-05-28 05:00 pm SW 12 13----29.84-0.02 78.8-----
2024-05-28 04:00 pmWSW 17 20----29.86-0.02 78.1-----
2024-05-28 03:00 pm SW 16 18----29.86-0.03 78.1-----
2024-05-28 02:00 pmWSW 10 11----29.86+0.00 77.9-----
2024-05-28 01:00 pm W 9 10----29.88+0.02 76.3-----
2024-05-28 12:00 pm W 11 13----29.88+0.02 74.8-----
2024-05-28 11:00 am W 9 11----29.87+0.02 73.2-----
2024-05-28 10:00 am W 10 12----29.86+0.01 71.4-----
2024-05-28 09:00 am W 10 12----29.86+0.04 70.3-----
2024-05-28 08:00 amWNW 10 11----29.85+0.06 68.2-----
2024-05-28 07:00 am W 10 12----29.85+0.08 68.9-----
2024-05-28 06:00 am W 8 10----29.82+0.05 69.1-----
2024-05-28 05:00 am W 11 12----29.80+0.02 70.0-----
2024-05-28 04:00 amWSW 8 9----29.78+0.00 69.4-----